Location: Mactaquac Provincial Park
(45.9573°N, 66.8897°W)
Time: 19:48:31
(UTC-03:00)

Cosmos 1867 - Visible Passes

Search period start: 28 June 2017 00:00
Search period end: 08 July 2017 00:00
Orbit: 778 x 798 km, 65.0° (Epoch: 27 June)

Date Brightness Start Highest point End Pass type
(mag) Time Alt. Az. Time Alt. Az. Time Alt. Az.
28 Jun 6.6 00:28:25 10° WNW 00:31:44 16° NNW 00:35:04 10° NNE visible
28 Jun 6.7 04:00:13 10° NNW 04:03:47 17° NNE 04:07:21 10° ENE visible
28 Jun 4.1 22:09:43 10° SW 22:15:08 67° NW 22:20:36 10° NNE visible
28 Jun 6.5 23:55:59 10° WNW 23:59:46 19° NNW 00:03:33 10° NNE visible
29 Jun 6.8 03:28:44 10° NNW 03:31:48 15° NNE 03:34:53 10° ENE visible
29 Jun 6.3 23:23:39 10° W 23:27:50 22° NNW 23:32:03 10° NNE visible
30 Jun 7.2 01:12:44 10° NNW 01:13:37 10° N 01:14:30 10° N visible
30 Jun 6.9 02:57:15 10° N 02:59:48 13° NNE 03:02:20 10° NE visible
30 Jun 5.4 04:39:56 10° NNW 04:45:01 37° NE 04:50:02 10° ESE visible
30 Jun 6.0 22:51:24 10° W 22:55:57 26° NW 23:00:31 10° NNE visible
01 Jul 7.1 00:40:00 10° NNW 00:41:32 11° NNW 00:43:05 10° N visible
01 Jul 7.1 02:25:46 10° N 02:27:45 12° NNE 02:29:44 10° NE visible
01 Jul 5.8 04:08:24 10° NNW 04:13:11 30° NE 04:17:58 10° E visible
01 Jul 5.7 22:19:15 10° WSW 22:24:06 32° NW 22:28:59 10° NNE visible
02 Jul 7.0 00:07:20 10° NW 00:09:29 12° NNW 00:11:37 10° N visible
02 Jul 7.1 01:54:20 10° N 01:55:42 11° N 01:57:03 10° NNE visible
02 Jul 6.1 03:36:51 10° NNW 03:41:20 25° NE 03:45:47 10° E visible
02 Jul 5.3 21:47:12 10° WSW 21:52:17 39° NW 21:57:25 10° NNE visible
02 Jul 6.8 23:34:45 10° NW 23:37:27 14° NNW 23:40:09 10° N visible
03 Jul 7.1 01:22:57 10° N 01:23:37 10° N 01:24:17 10° NNE visible
03 Jul 6.3 03:05:20 10° NNW 03:09:26 21° NNE 03:13:30 10° E visible
03 Jul 3.8 04:48:23 10° NW 04:53:53 81° NE 04:59:19 10° SE visible
03 Jul 6.7 23:02:14 10° WNW 23:05:26 16° NNW 23:08:39 10° NNE visible
04 Jul 6.5 02:33:50 10° NNW 02:37:30 18° NNE 02:41:09 10° ENE visible
04 Jul 4.2 04:16:45 10° NNW 04:22:11 63° NE 04:27:34 10° SE visible
04 Jul 6.6 22:29:47 10° WNW 22:33:28 18° NNW 22:37:10 10° NNE visible
05 Jul 6.5 02:02:20 10° NNW 02:05:31 15° NNE 02:08:42 10° ENE visible
05 Jul 4.6 03:45:09 10° NNW 03:50:28 49° NE 03:55:43 10° ESE visible
05 Jul 6.4 21:57:26 10° W 22:01:32 21° NNW 22:05:40 10° NNE visible
05 Jul 7.0 23:46:37 10° NNW 23:47:21 10° N 23:48:04 10° N visible
06 Jul 6.6 01:30:51 10° N 01:33:31 13° NNE 01:36:11 10° NE visible
06 Jul 5.0 03:13:34 10° NNW 03:18:41 39° NE 03:23:45 10° ESE visible
06 Jul 4.0 04:57:13 10° NW 05:02:20 42° WSW 05:07:24 10° S visible
06 Jul 6.9 23:13:52 10° NNW 23:15:16 11° N 23:16:41 10° N visible
07 Jul 6.6 00:59:23 10° N 01:01:29 12° NNE 01:03:35 10° NE visible
07 Jul 5.4 02:42:01 10° NNW 02:46:53 31° NE 02:51:42 10° ESE visible
07 Jul 3.7 04:25:26 10° NW 04:30:46 56° WSW 04:36:03 10° SSE visible
07 Jul 6.7 22:41:11 10° NW 22:43:12 12° NNW 22:45:14 10° N visible
